This is the latest recevied weather packets stored in our database for station/object YO2KCB-10. If no packets are shown the sender has not sent any weather packets the latest 10 day(s).
| Time | Temp. | Humidity | Pressure | Rain* | Wind** | Luminosity | Snow |
|---|---|---|---|---|---|---|---|
| 1777159766 | 16.11° C | 28% | 1012.8 hPa | - | - | - | - |
| 1777158565 | 16.11° C | 28% | 1013.1 hPa | - | - | - | - |
| 1777157365 | 16.67° C | 28% | 1013.3 hPa | - | - | - | - |
| 1777156165 | 16.67° C | 27% | 1013.4 hPa | - | - | - | - |
| 1777154965 | 16.67° C | 27% | 1013.5 hPa | - | - | - | - |
| 1777153765 | 16.67° C | 27% | 1013.6 hPa | - | - | - | - |
| 1777152565 | 17.22° C | 27% | 1013.5 hPa | - | - | - | - |
| 1777151365 | 17.22° C | 26% | 1013.4 hPa | - | - | - | - |
| 1777150165 | 17.22° C | 27% | 1013.3 hPa | - | - | - | - |
| 1777148964 | 17.78° C | 27% | 1013.4 hPa | - | - | - | - |
| 1777147764 | 17.78° C | 25% | 1013.5 hPa | - | - | - | - |
| 1777146564 | 18.33° C | 27% | 1013.6 hPa | - | - | - | - |
| 1777145364 | 18.33° C | 27% | 1013.5 hPa | - | - | - | - |
| 1777144164 | 18.89° C | 26% | 1013.5 hPa | - | - | - | - |
| 1777142963 | 19.44° C | 25% | 1013.5 hPa | - | - | - | - |
| 1777141763 | 20° C | 26% | 1013.3 hPa | - | - | - | - |
| 1777140563 | 20.56° C | 25% | 1013.2 hPa | - | - | - | - |
| 1777139363 | 21.67° C | 24% | 1012.9 hPa | - | - | - | - |
| 1777138163 | 22.22° C | 24% | 1012.9 hPa | - | - | - | - |
| 1777136963 | 23.89° C | 24% | 1013 hPa | - | - | - | - |
| 1777135762 | 25° C | 24% | 1013 hPa | - | - | - | - |
| 1777134562 | 26.11° C | 23% | 1012.9 hPa | - | - | - | - |
| 1777133362 | 26.11° C | 22% | 1013.1 hPa | - | - | - | - |
| 1777132162 | 26.11° C | 22% | 1013 hPa | - | - | - | - |
| 1777130962 | 26.11° C | 22% | 1013.2 hPa | - | - | - | - |
* Rain since midnight (hover to see other rain measurements)
** Current wind speed in m/s (hover to see current wind gust speed)